Powrót do katalogu

STARLINK-32855

AktywnyŁącznośćVLEO
NORAD 62813·PAYLOAD·🇺🇸 United States

Wystrzelony Jan 24, 2025 z Vandenberg Space Force Base

Loading…

Następne Przeloty (najbliższe 24 godziny)

TLE

ŚwieżeSource: CelesTrak SupGP

Epoka: Sep 14, 2026, 21:12 UTC

1 62813C 25018H   26257.88381944 -.00058761  00000+0 -17356-2 0  2572
2 62813  53.1564 147.7062 0001253 100.7956  79.6500 15.34428802    17

Śledź STARLINK-32855 w czasie rzeczywistym z AllMySat

Download on the App Store